Theta_e
342 342 344 344 343 342 344 347 347 347 348 349 351 350 350 349 351 352 351 351 349 350 350 349 349 349 346 347 349 349 345 342 338 344 344 351 352 354 353 356 356 356 353
343 344 343 344 345 345 346 347 347 346 348 348 347 346 347 349 351 351 350 352 349 348 349 349 349 348 350 349 347 348 348 348 343 341 346 348 349 352 353 353 352 346 346
343 344 344 343 344 344 347 348 348 344 347 345 343 342 343 349 350 351 351 351 351 350 350 349 350 349 349 350 349 349 348 348 346 346 344 348 348 349 349 351 350 348 336
343 344 344 344 344 345 346 347 348 347 347 345 345 345 347 351 351 352 352 352 352 352 352 350 350 350 351 350 348 348 349 346 347 343 344 345 347 348 347 344 343 345 328
342 343 344 345 345 344 345 346 347 348 348 347 345 346 349 349 347 347 348 349 350 349 345 343 343 341 337 341 349 348 347 345 345 344 344 342 341 338 339 342 342 345 331
343 343 344 344 344 344 344 344 345 345 346 348 348 347 343 341 328 331 335 343 347 347 342 339 338 337 337 334 335 335 342 345 344 343 339 334 336 339 339 339 339 339 327
342 341 341 342 342 342 342 342 342 341 343 343 341 339 337 332 322 324 329 341 345 342 336 333 333 334 336 330 327 328 326 327 331 339 334 333 334 334 337 334 333 327 317
339 340 340 339 338 340 340 340 341 342 340 334 330 331 331 329 324 321 328 342 339 337 333 329 329 331 331 329 327 327 326 325 322 322 322 320 322 323 329 331 329 327 321
336 338 338 338 336 338 334 332 332 331 325 323 322 323 327 328 321 323 330 329 324 321 320 321 323 324 319 319 326 323 319 317 317 317 316 315 315 316 318 323 320 322 319
335 337 337 336 335 332 328 325 320 317 314 314 315 317 316 325 319 320 324 321 316 314 318 318 317 318 315 316 326 322 318 317 315 314 313 312 313 313 314 315 313 309 310
338 337 336 335 331 328 325 321 318 316 316 317 315 313 313 315 323 318 317 319 316 315 316 317 315 312 309 311 315 320 316 316 313 311 308 307 308 307 307 308 308 308 304
334 334 334 333 332 328 323 320 317 316 313 310 307 307 308 312 314 313 313 315 317 316 315 312 309 307 306 307 310 310 310 311 309 307 304 303 302 303 304 304 305 305 305
324 325 322 322 329 327 322 318 314 312 308 306 306 305 305 307 309 309 310 312 314 314 313 310 307 305 306 307 308 308 309 307 306 304 301 300 300 301 303 303 303 303 303
315 314 314 314 314 314 312 317 315 312 309 308 306 304 303 304 305 306 309 313 313 311 311 309 308 307 306 306 305 306 306 305 302 300 299 300 300 299 298 300 298 300 297
312 309 310 311 311 308 301 303 305 301 302 312 306 301 300 301 298 297 301 307 310 307 305 304 303 302 301 302 302 302 302 301 300 300 298 298 297 297 297 298 297 296 294
309 307 305 305 303 305 303 299 298 298 297 296 296 299 297 297 295 294 293 295 298 300 304 301 300 300 300 301 300 299 299 299 298 298 297 297 296 295 295 295 296 295 293
309 308 306 306 306 305 306 305 300 299 297 296 294 295 296 295 294 293 294 295 297 301 302 301 299 299 300 299 299 298 297 297 297 296 295 295 295 294 294 293 294 293 293
312 308 308 306 305 304 304 304 303 303 300 298 295 295 293 293 293 293 295 299 301 301 301 300 299 300 299 299 298 297 296 295 295 295 295 295 294 294 294 293 293 293 293
309 312 310 307 304 303 301 299 300 300 298 297 297 296 295 293 294 295 297 306 304 302 301 300 300 299 299 299 298 297 296 295 294 294 294 294 294 294 293 293 293 292 293
304 306 308 309 303 300 298 297 297 297 296 296 296 297 298 299 303 303 303 305 304 303 302 301 300 300 300 299 297 296 295 294 293 293 293 293 293 293 293 293 293 293 293
301 303 305 306 304 302 299 297 298 295 295 295 295 296 296 302 302 302 302 303 302 302 301 301 301 300 300 299 298 296 294 293 293 293 293 293 293 292 293 293 293 294 294
302 300 300 300 302 303 302 300 299 299 296 295 295 297 294 301 303 302 302 303 303 303 303 303 301 301 300 300 299 297 295 294 294 294 293 293 293 292 292 293 293 293 294
302 301 300 300 300 301 301 300 301 301 300 299 298 299 299 300 302 303 303 303 303 303 303 303 302 300 301 300 300 299 297 296 296 296 294 293 293 292 293 293 293 293 294
304 303 302 299 299 300 300 301 301 298 302 302 302 301 301 300 301 303 304 304 303 303 303 303 302 301 301 300 300 299 299 299 298 297 296 295 293 291 292 292 292 292 292
303 303 302 302 300 299 299 299 300 301 302 302 302 302 302 302 301 301 303 303 303 303 302 303 303 302 302 301 301 301 297 291 298 294 297 295 294 293 293 292 292 292 292
305 303 302 302 301 300 299 299 300 301 301 302 302 303 302 300 301 300 301 303 303 303 303 303 303 302 303 302 302 297 288 287 293 289 297 296 294 294 293 293 292 292 292
Wind_Speed
9 7 7 7 6 4 5 5 5 4 5 5 4 4 5 6 5 4 5 5 4 3 3 4 4 2 2 2 1 1 2 2 2 2 2 1 2 6 7 6 6 8 9
10 9 9 7 6 5 5 5 5 6 4 4 4 4 5 6 5 6 6 5 6 5 5 4 4 2 3 2 3 3 2 2 2 3 1 1 1 4 4 6 7 9 8
9 10 8 8 7 7 7 5 5 4 5 4 4 5 5 5 5 6 6 5 5 5 5 5 5 5 4 3 4 3 2 2 2 2 2 1 2 4 3 4 7 8 8
10 10 11 10 10 9 8 6 5 5 5 5 4 5 5 5 5 5 5 6 6 5 4 4 5 5 5 4 5 5 4 2 1 1 0 0 0 1 2 3 5 5 8
11 11 12 10 8 6 6 6 4 4 5 5 5 5 4 5 3 4 4 5 5 4 3 3 2 2 2 3 4 4 4 3 3 2 2 1 1 1 2 2 1 2 4
12 12 9 8 8 7 6 5 4 4 5 5 6 7 6 3 4 2 3 5 4 6 6 3 2 1 5 7 6 5 0 2 3 3 2 1 1 0 1 1 1 2 2
8 7 9 9 9 8 7 6 5 4 4 6 5 4 4 5 2 3 7 4 4 4 4 4 0 1 6 7 9 9 10 11 8 2 2 3 2 3 1 2 3 4 3
8 7 5 5 7 4 5 4 4 3 4 2 3 4 4 4 6 8 7 4 5 6 5 1 1 1 2 5 6 9 10 11 9 9 9 7 6 5 5 2 2 6 5
5 7 8 6 6 7 5 4 3 3 2 2 1 2 3 3 6 6 8 6 8 7 6 5 4 3 6 6 8 11 11 11 13 16 15 14 18 19 13 2 5 1 2
6 6 8 9 6 6 7 6 2 3 4 4 3 4 4 2 2 7 8 5 8 6 5 5 11 5 6 5 8 9 10 6 7 7 8 12 14 14 19 11 6 5 2
5 9 12 12 10 8 5 5 5 6 5 4 4 4 4 4 2 5 11 6 5 4 6 3 5 10 7 9 8 6 6 9 10 8 8 8 9 10 9 10 11 7 5
4 5 5 13 12 8 8 6 8 5 5 4 5 4 2 4 5 8 6 8 8 8 6 5 7 10 12 13 10 12 10 10 7 7 7 7 7 7 8 9 10 11 10
5 8 9 6 7 10 8 7 5 4 3 4 4 4 4 4 3 12 10 10 10 7 6 10 12 13 13 13 14 12 8 7 7 8 7 6 6 6 5 5 8 9 10
8 8 8 9 9 8 7 3 5 4 3 2 3 4 3 3 3 3 4 6 13 12 12 6 10 13 13 8 7 9 8 7 7 7 7 6 5 6 7 5 5 2 5
7 7 7 7 7 8 8 6 5 5 3 3 3 3 2 3 3 5 5 4 6 9 10 4 3 4 6 7 7 8 7 7 7 7 7 6 6 6 7 6 6 5 7
7 6 5 4 5 5 6 6 14 10 8 11 11 6 3 8 7 8 9 12 12 5 5 4 3 4 6 7 7 7 7 7 6 6 6 6 6 6 6 5 5 6 6
7 6 4 4 4 5 4 4 5 6 12 13 9 7 4 6 5 5 14 12 9 9 5 4 5 5 6 6 6 7 6 5 5 5 6 5 6 6 5 5 5 5 5
5 7 4 3 4 3 3 4 3 4 3 2 6 6 6 6 5 2 3 11 7 6 6 6 6 7 6 6 6 7 6 5 5 5 6 5 4 4 5 5 5 5 5
3 3 3 3 2 3 3 4 4 4 4 4 3 3 4 3 5 9 3 3 5 6 5 6 7 7 7 7 7 6 7 5 6 5 4 4 4 4 5 4 5 6 5
4 6 4 4 4 4 3 3 3 3 3 2 3 3 3 2 1 2 1 3 5 6 6 6 5 5 6 7 7 7 7 6 6 5 4 4 3 2 4 4 3 4 4
2 3 5 4 4 4 4 3 3 3 3 4 3 3 6 3 4 4 5 5 6 6 6 6 6 6 6 7 7 7 7 6 5 5 4 4 4 4 3 2 2 2 3
3 2 2 3 4 4 4 4 3 3 3 3 3 3 6 2 4 5 4 5 5 5 6 6 6 6 7 7 7 7 6 6 6 5 5 5 4 3 3 2 1 1 2
3 3 3 2 2 4 4 3 3 4 5 4 4 4 4 4 4 4 5 5 5 5 5 5 6 6 6 7 7 7 8 8 7 7 6 5 4 3 3 2 2 2 2
4 3 3 2 2 2 2 3 3 4 5 5 5 5 5 5 6 6 5 5 6 6 6 7 7 9 8 7 7 7 7 6 6 7 7 6 5 5 3 3 3 4 4
5 5 5 4 4 4 3 3 3 3 3 4 5 5 5 6 6 6 6 6 7 7 9 8 8 11 13 14 12 13 10 11 9 9 7 6 6 6 4 3 3 3 4
6 5 5 3 3 4 4 4 4 4 4 4 4 4 4 5 6 6 6 7 8 8 9 8 9 13 14 12 14 14 9 12 11 11 9 7 7 6 5 5 5 4 5
Wind_Direction
188 186 184 192 196 203 203 207 211 205 202 222 227 207 198 198 206 206 209 197 216 215 212 220 243 228 231 214 207 202 201 184 235 307 293 335 349 3 10 23 35 46 47
191 186 191 189 189 191 214 219 197 219 215 217 193 196 204 206 201 204 220 214 209 215 220 217 235 210 244 221 210 231 242 205 225 261 295 301 30 359 355 36 49 53 51
181 189 189 191 188 196 201 216 222 204 211 216 209 209 220 207 212 212 208 215 219 225 219 217 223 205 217 204 209 215 214 206 218 233 291 330 335 8 354 16 39 28 40
183 191 194 197 196 200 198 204 203 207 199 205 209 225 224 232 222 214 211 217 212 214 219 221 220 216 225 213 198 205 206 190 210 225 235 329 272 358 55 22 52 47 33
184 191 204 199 191 182 193 195 206 214 220 201 197 210 208 209 200 203 217 229 222 203 179 163 138 96 88 181 185 194 192 177 177 180 175 156 63 19 34 356 66 112 72
188 197 187 184 170 177 173 166 167 204 224 216 208 198 192 180 142 169 215 234 207 183 174 143 119 123 62 77 59 38 166 190 186 171 156 167 175 298 354 39 25 41 18
186 191 187 174 169 169 159 154 159 202 221 219 195 192 182 135 150 236 235 234 195 149 126 110 68 320 140 105 78 76 53 48 49 97 114 36 30 1 338 65 50 91 90
162 153 149 161 140 148 143 163 153 173 201 209 177 161 166 174 236 176 227 175 114 104 104 93 147 162 83 112 96 73 62 56 48 67 70 58 52 15 23 36 91 120 119
183 164 147 126 159 135 156 149 131 145 118 82 53 129 168 175 306 183 186 140 111 102 102 83 84 76 35 118 111 105 98 92 78 79 76 66 54 45 36 44 43 82 72
191 189 148 140 146 160 134 121 71 91 101 98 94 36 347 231 357 164 136 134 122 116 89 97 68 48 66 98 135 134 124 113 107 81 60 50 45 46 46 49 40 80 66
188 189 154 143 144 117 108 95 115 104 118 109 115 72 48 353 121 222 140 131 120 117 107 95 57 54 46 87 101 106 115 120 93 79 75 71 64 57 55 55 51 60 77
116 120 137 143 131 122 122 116 102 121 129 120 90 83 53 51 89 74 62 118 145 133 120 94 83 78 69 67 74 87 96 93 92 92 76 59 65 68 71 72 70 73 72
64 109 104 61 103 129 135 122 115 125 130 123 117 104 79 67 61 79 102 100 92 98 113 112 118 107 90 73 71 72 79 94 101 88 85 76 67 60 72 79 81 79 68
72 59 54 79 85 75 73 87 115 126 124 126 123 110 113 88 64 79 96 89 90 93 102 87 81 82 76 71 69 68 75 84 97 99 100 90 68 60 61 52 62 98 63
67 59 62 62 70 79 61 43 64 65 341 106 98 80 85 104 70 55 54 84 118 125 117 90 77 77 83 81 76 72 73 76 88 100 98 90 78 70 56 38 50 55 60
73 64 59 77 83 87 102 94 53 67 54 65 63 84 62 101 127 100 90 89 85 95 71 106 93 85 96 98 93 89 80 83 82 84 86 89 86 80 78 62 53 59 58
98 100 95 84 90 98 86 89 103 41 56 65 59 74 75 114 29 124 119 103 103 95 104 98 111 111 112 106 105 100 102 89 98 97 95 88 90 84 76 71 59 55 62
112 121 123 123 122 118 119 120 122 128 108 62 31 64 58 90 96 2 125 112 103 90 131 140 132 129 130 125 123 128 120 115 101 98 94 89 83 86 88 74 64 61 59
123 133 129 122 126 134 140 137 141 140 134 134 125 71 69 24 116 126 355 111 127 133 143 145 151 149 146 142 135 139 129 128 118 110 98 103 100 97 91 87 87 69 50
91 134 164 157 140 139 139 143 152 163 159 162 166 170 150 147 164 178 95 133 136 147 151 147 145 145 138 144 145 143 139 143 138 136 134 118 103 101 97 91 72 56 38
89 102 125 142 155 159 150 158 164 165 169 162 191 196 178 184 178 182 164 156 159 156 154 155 165 155 157 156 156 155 152 152 155 139 146 139 151 136 132 112 93 59 24
132 125 120 132 151 168 173 172 176 178 176 180 172 173 179 185 177 181 174 167 168 164 161 158 157 172 170 169 170 169 156 165 169 156 161 165 167 158 156 162 154 28 341
164 160 152 142 149 135 146 172 185 183 193 192 184 176 176 190 195 193 189 178 171 175 166 162 171 180 181 179 178 171 174 189 185 176 169 170 174 171 179 187 220 251 286
173 175 177 174 177 177 186 185 186 192 189 192 197 200 199 197 202 210 211 195 185 182 178 184 184 184 187 189 188 193 197 186 178 182 173 172 174 174 189 209 224 240 266
182 186 188 184 184 191 197 212 221 224 220 206 198 203 211 209 208 215 211 197 193 191 194 195 192 193 196 197 198 201 196 173 182 174 178 183 191 191 200 217 228 253 268
186 190 196 192 203 200 205 209 213 216 223 233 233 227 218 218 222 218 211 200 197 200 198 199 204 202 202 209 214 213 199 194 190 187 186 191 198 204 205 214 225 246 262